SCP
-0 -0 -0 -0 -0 -0 -0 -0 0 0 0 0 -0 -0 -0 -0 0 0 0 0 0 0 -0 0 0 0 0 0 0 0 0 0 0 0 0 0 0 0 0 0 0 0 0 0 0 0 0 0 0 0 0 0 0 0
-0 -0 -0 -0 -0 -0 -0 -0 0 0 0 0 -0 -0 -0 -0 -0 0 0 0 0 0 0 0 0 0 0 0 0 0 0 0 0 0 0 0 0 0 0 0 0 0 0 0 0 0 0 0 0 0 0 0 0 0
-0 -0 -0 -0 -0 -0 -0 -0 0 -0 0 -0 -0 -0 -0 -0 0 0 0 0 0 0 -0 0 0 0 0 0 0 0 0 0 0 0 0 0 0 0 0 0 0 0 0 0 0 0 0 0 0 0 0 0 0 0
0 -0 -0 -0 -0 -0 0 -0 0 0 0 0 -0 -0 -0 -0 0 0 0 0 0 0 0 0 0 0 0 0 0 0 0 0 0 0 0 0 0 0 0 0 0 0 0 0 0 0 0 0 0 0 0 0 0 0
0 0 -0 -0 -0 -0 -0 0 -0 0 0 0 -0 -0 -0 -0 -0 -0 0 0 0 -0 0 0 -0 0 0 0 0 0 0 0 0 0 0 0 0 0 0 0 0 0 0 0 0 0 0 0 0 0 0 0 0 0
-0 0 0 0 -0 -0 -0 -0 -0 0 0 -0 -0 -0 0 0 0 0 -0 0 0 0 0 0 0 0 0 0 0 0 0 0 0 0 0 0 0 0 0 0 0 0 0 0 0 0 0 0 0 0 0 0 0 0
-0 -0 0 0 -0 -0 -0 0 -0 -0 -0 -0 -0 -0 -0 -0 0 0 -0 0 0 0 0 0 0 0 0 0 0 0 0 0 0 0 0 0 0 0 0 0 0 0 0 0 0 0 0 0 0 0 0 0 0 0
-0 -0 -0 0 0 -0 -0 -0 -0 -0 0 -0 -0 -0 -0 -0 -0 0 0 -0 0 0 0 0 0 0 0 0 0 0 0 0 0 0 0 0 0 0 0 0 0 0 0 0 0 0 0 0 0 0 0 0 0 0
0 -0 -0 -0 -0 0 -0 -0 -0 0 0 0 0 0 0 0 0 0 0 -0 0 0 0 0 0 0 0 0 0 0 0 0 0 0 0 0 0 0 0 0 0 0 0 0 0 0 0 0 0 0 0 0 0 0
0 0 -0 -0 -0 -0 0 -0 -0 0 0 0 0 -0 -0 -0 0 0 0 0 0 0 0 0 0 0 0 0 0 0 0 0 0 0 0 0 0 0 0 0 0 0 0 0 0 0 0 0 0 0 0 0 0 0
0 0 -0 -0 -0 -0 -0 -0 -0 -0 0 0 0 0 0 0 0 0 0 0 0 0 0 0 0 0 0 0 0 0 0 0 0 0 0 0 0 0 0 0 0 0 0 0 0 0 0 0 0 0 0 0 0 0
-0 -0 0 0 -0 -0 -0 -0 -0 0 0 0 0 0 0 0 0 0 0 0 0 0 0 0 0 0 0 0 0 0 0 0 0 0 0 0 0 0 0 0 0 0 0 0 0 0 0 0 0 0 0 0 0 0
-0 -0 -0 0 -0 -0 -0 -0 -0 0 0 0 0 0 0 0 0 0 0 0 0 0 0 0 0 0 0 0 0 0 0 0 0 0 0 0 0 0 0 0 0 0 0 0 0 0 0 0 0 0 0 0 0 0
-0 -0 -0 0 -0 -0 -0 -0 -0 0 0 0 0 0 0 0 0 0 0 0 0 0 0 0 0 0 0 0 0 0 0 0 0 0 0 0 0 0 0 0 0 0 0 0 0 0 0 0 0 0 0 0 0 0
-0 -0 0 0 -0 -0 -0 0 0 0 0 0 0 0 0 0 0 0 0 0 0 0 0 0 0 0 0 0 0 0 0 0 0 0 0 0 0 0 0 0 0 0 0 0 0 0 0 0 0 0 0 0 0 0
-0 0 0 0 -0 -0 0 0 0 0 0 0 0 0 0 0 0 0 0 -0 0 0 0 0 0 0 0 0 0 0 0 0 0 0 0 0 0 0 0 0 0 0 0 0 0 0 0 0 0 0 0 0 0 0
0 0 0 0 0 0 0 0 0 0 0 0 0 0 0 0 0 0 0 0 0 0 0 0 0 0 0 0 0 0 0 0 0 0 0 0 0 0 0 0 0 0 0 0 0 0 0 0 0 0 0 0 0 0
0 0 0 0 0 0 0 0 0 0 0 0 0 0 0 0 0 0 0 0 0 0 0 0 0 0 0 0 0 0 0 0 0 0 0 0 0 0 0 0 0 0 0 0 0 0 0 0 0 0 0 0 0 0
0 0 0 0 0 0 0 0 0 0 0 0 0 0 0 0 0 0 0 0 0 0 0 0 0 0 0 0 0 0 0 0 0 0 0 0 0 0 0 0 0 0 0 0 0 0 0 0 0 0 0 0 0 0
0 0 0 0 0 0 0 0 0 0 0 0 0 0 0 0 0 0 0 0 0 0 0 0 0 0 0 0 0 0 0 0 0 0 0 0 0 0 0 0 0 0 0 0 0 0 0 0 0 0 0 0 0 0
0 0 0 0 0 0 0 0 0 0 0 0 0 0 0 0 0 0 0 0 0 0 0 0 0 0 0 0 0 0 0 0 0 0 0 0 0 0 0 0 0 0 0 0 0 0 0 0 0 0 0 0 0 0
0 0 0 0 0 0 0 0 0 0 0 0 0 0 0 0 0 0 0 0 0 0 0 0 0 0 0 0 0 0 0 0 0 0 0 0 0 0 0 0 0 0 0 0 0 0 0 0 0 0 0 0 0 0
0 0 0 0 0 0 0 0 0 0 0 0 0 0 0 0 0 0 0 0 0 0 0 0 0 0 0 0 0 0 0 0 0 0 0 0 0 0 0 0 0 0 0 0 0 0 0 0 0 0 0 0 0 0
0 0 0 0 0 0 0 0 0 0 0 0 0 0 0 0 0 0 0 0 0 0 0 0 0 0 0 0 0 0 0 0 0 0 0 0 0 0 0 0 0 0 0 0 0 0 0 0 0 0 0 0 0 0
0 0 0 0 0 0 0 0 0 0 0 0 0 0 0 0 0 0 0 0 0 0 0 0 0 0 0 0 0 0 0 0 0 0 0 0 0 0 0 0 0 0 0 0 0 0 0 0 0 0 0 0 0 0
0 0 0 0 0 0 0 0 0 0 0 0 0 0 0 0 0 0 0 0 0 0 0 0 0 0 0 0 0 0 0 0 0 0 0 0 0 0 0 0 0 0 0 0 0 0 0 0 0 0 0 0 0 0
0 0 0 0 0 0 0 0 0 0 0 0 0 0 0 0 0 0 0 0 0 0 0 0 0 0 0 0 0 0 0 0 0 0 0 0 0 0 0 0 0 0 0 0 0 0 0 0 0 0 0 0 0 0
0 0 0 0 0 0 0 0 0 0 0 0 0 0 0 0 0 0 0 0 0 0 0 0 0 0 0 0 0 0 0 0 0 0 0 0 0 0 0 0 0 0 0 0 0 0 0 0 0 0 0 0 0 0
0 0 0 0 0 0 0 0 0 0 0 0 0 0 0 0 0 0 0 0 0 0 0 0 0 0 0 0 0 0 0 0 0 0 0 0 0 0 0 0 0 0 0 0 0 0 0 0 0 0 0 0 0 0
0 0 0 0 0 0 0 0 0 0 0 0 0 0 0 0 0 0 0 0 0 0 0 0 0 0 0 0 0 0 0 0 0 0 0 0 0 0 0 0 0 0 0 0 0 0 0 0 0 0 0 0 0 0
0 0 0 0 0 0 0 0 0 0 0 0 0 0 0 0 0 0 0 0 0 0 0 0 0 0 0 0 0 0 0 0 0 0 0 0 0 0 0 0 0 0 0 0 0 0 0 0 0 0 0 0 0 0
0 0 0 0 0 0 0 0 0 0 0 0 0 0 0 0 0 0 0 0 0 0 0 0 0 0 0 0 0 0 0 0 0 0 0 0 0 0 0 0 0 0 0 0 0 0 0 0 0 0 0 0 0 0
0 0 0 0 0 0 0 0 0 0 0 0 0 0 0 0 0 0 0 0 0 0 0 0 0 0 0 0 0 0 0 0 0 0 0 0 0 0 0 0 0 0 0 0 0 0 0 0 0 0 0 0 0 0
Wind_Speed_500mb
74 72 74 83 86 91 82 80 69 39 17 16 34 30 75 78 78 60 30 38 9 4 8 6 4 5 13 11 7 12 12 2 4 7 6 3 4 6 6 6 15 22 15 8 5 6 15 3 3 20 14 25 34 34
72 71 69 78 87 87 74 79 67 49 33 18 29 48 76 71 67 54 32 18 10 9 1 3 6 4 1 1 5 9 7 5 10 3 2 5 6 3 7 4 6 8 9 10 9 5 8 13 17 17 20 41 30 36
66 71 67 73 80 81 68 69 60 51 36 36 48 61 67 59 51 37 32 24 10 7 8 3 4 5 6 7 2 6 7 11 12 11 7 5 7 5 7 5 6 4 6 7 8 7 8 14 26 30 36 40 35 29
60 65 65 65 73 70 70 63 48 50 48 41 46 54 53 51 41 25 27 23 12 8 5 4 14 4 12 7 7 8 4 9 15 9 6 4 4 5 3 3 4 1 11 13 8 11 17 8 21 30 35 35 35 30
54 58 63 61 63 63 61 49 50 33 34 44 43 46 41 36 32 23 22 28 24 9 4 1 5 19 19 6 7 8 9 9 8 6 5 4 4 8 1 4 3 10 11 10 8 36 12 19 32 29 32 31 29 31
52 52 55 59 55 58 46 46 28 33 36 41 45 35 29 23 21 18 8 10 16 14 4 4 4 10 8 9 9 13 14 2 8 9 5 9 6 2 5 6 1 5 9 14 12 51 32 56 40 32 36 32 29 28
48 50 49 52 53 50 45 30 28 13 6 11 23 24 23 21 18 13 6 14 6 8 2 6 8 9 4 3 4 9 11 6 9 7 9 3 4 8 2 6 10 20 17 27 46 51 38 56 36 43 34 33 31 28
44 45 46 45 46 47 48 27 13 22 18 11 5 16 16 22 20 15 23 26 14 4 3 5 6 7 11 9 5 4 7 7 12 7 7 5 5 6 6 7 29 30 35 43 43 12 29 51 58 53 43 36 32 26
46 41 42 41 41 41 42 41 4 1 6 14 21 9 1 6 3 3 4 8 17 9 7 5 7 7 8 6 5 7 6 5 6 4 3 2 2 8 3 24 46 50 39 47 38 37 47 52 53 50 48 44 35 29
45 43 39 38 38 37 36 35 24 15 17 17 25 7 6 4 19 1 4 2 3 7 7 4 2 3 6 6 3 5 2 4 1 2 4 1 7 7 8 31 49 57 29 59 60 44 49 48 51 51 44 39 30 24
42 44 40 36 35 35 34 32 29 19 13 12 7 6 6 16 6 4 2 8 10 6 9 5 4 4 7 1 2 2 3 2 4 4 4 3 7 8 36 43 47 46 40 55 34 40 44 45 47 46 41 36 28 18
38 43 43 39 37 33 32 33 28 26 11 10 7 6 10 4 1 7 3 6 7 5 4 2 3 3 4 4 4 3 3 2 4 2 2 6 6 19 53 52 49 46 43 38 25 38 42 39 36 34 31 26 20 10
36 37 39 40 41 33 32 33 32 26 20 7 6 5 2 7 8 8 6 7 4 2 6 8 2 2 3 2 3 2 3 1 2 4 8 8 7 43 56 53 50 44 42 40 38 40 39 36 32 27 21 18 11 6
36 36 34 37 39 34 32 34 32 24 9 4 5 5 5 7 6 8 7 7 2 3 2 3 7 5 6 3 3 4 2 0 1 4 11 5 37 62 55 53 55 56 51 47 44 40 35 31 25 20 16 11 5 6
35 36 30 36 42 39 33 32 30 19 7 5 2 6 6 1 2 5 7 5 8 6 2 1 3 3 4 4 4 6 4 6 9 9 6 7 51 72 71 67 60 56 52 46 40 36 32 27 23 19 13 8 6 11
34 34 23 40 40 41 36 30 24 10 5 2 6 9 6 4 4 7 12 7 15 13 7 3 3 6 4 5 5 11 9 10 7 6 6 26 54 64 64 60 52 46 42 39 37 33 29 24 19 16 13 14 14 15
31 17 37 39 38 42 39 22 8 6 2 3 2 8 6 3 6 13 18 17 19 12 4 5 5 15 2 4 5 7 9 6 7 10 19 44 53 58 56 53 51 49 46 43 39 34 32 29 24 22 20 18 15 17
37 35 36 36 37 39 24 6 6 1 6 5 3 7 5 2 6 10 13 23 18 11 12 8 13 5 9 8 8 7 23 17 11 13 32 45 47 49 50 53 53 49 45 40 36 35 32 28 25 21 21 20 16 19
42 42 39 37 30 24 8 5 4 4 4 5 8 14 7 5 7 10 14 21 16 8 5 7 5 7 8 9 11 14 20 21 19 34 43 47 48 49 49 48 46 46 45 42 38 31 26 26 24 24 21 20 17 21
44 43 36 22 22 10 8 4 4 2 6 10 12 13 7 4 11 12 12 16 14 7 2 6 11 11 16 13 14 17 15 30 36 45 47 52 53 53 51 51 50 45 43 42 40 38 34 28 23 21 23 24 23 19
48 39 33 27 15 15 8 5 2 2 8 6 12 13 5 10 8 13 12 18 14 13 7 29 34 26 23 22 20 22 24 35 47 43 48 55 57 56 54 51 46 45 45 43 39 34 32 26 18 29 28 25 26 25
50 39 24 19 11 8 4 4 4 7 4 6 13 8 6 4 8 9 11 18 18 22 29 33 41 35 35 34 29 26 26 33 42 42 25 40 55 59 60 58 57 55 51 45 39 35 30 24 30 33 28 26 32 28
29 12 9 11 9 6 2 10 3 3 3 5 4 2 4 3 4 8 10 17 21 29 42 50 48 42 34 36 34 32 33 38 43 45 37 29 36 46 49 49 49 49 46 42 38 35 33 31 35 33 31 33 34 33
15 9 8 6 9 5 9 2 2 5 4 2 3 5 5 3 2 1 7 13 22 31 34 37 46 45 42 44 46 40 39 42 43 45 46 40 38 40 43 44 44 43 40 35 39 39 37 37 37 37 36 37 37 36
7 9 7 6 6 6 3 1 3 4 5 3 2 6 4 0 1 4 7 9 12 19 20 26 35 41 49 45 44 44 45 48 50 51 49 47 40 38 42 46 48 45 43 46 46 41 38 37 40 42 41 41 39 38
6 9 7 7 4 8 9 7 9 11 6 5 9 1 1 4 2 13 7 6 10 16 21 20 18 21 35 43 46 41 44 49 51 52 49 48 47 45 43 45 46 46 44 40 38 39 39 40 42 44 43 41 39 41
8 8 8 7 6 9 4 3 4 3 8 11 7 7 4 5 12 8 6 8 10 19 17 17 21 22 22 22 27 34 38 35 50 50 47 47 45 43 44 42 41 36 35 35 37 38 39 40 43 43 42 40 41 42
12 14 9 13 9 9 6 5 8 12 8 11 17 9 12 14 8 3 3 7 13 21 26 25 22 26 27 24 21 26 31 36 32 42 48 47 48 49 50 48 44 42 41 39 37 37 38 39 40 41 43 42 40 41
8 10 13 4 3 7 13 12 8 7 10 18 8 7 9 13 12 13 16 20 29 34 41 43 40 35 30 31 30 26 30 33 40 43 48 52 50 50 48 48 46 43 40 38 39 39 39 40 40 41 42 45 44 45
11 18 8 5 8 9 6 13 6 7 14 19 13 15 19 31 36 37 40 44 47 43 35 30 31 35 34 34 30 28 30 34 38 42 44 44 43 38 35 36 36 35 35 36 38 41 43 45 44 45 44 44 44 45
11 17 6 7 6 4 7 12 19 23 21 18 28 29 30 26 38 38 26 18 16 14 12 15 20 19 17 20 26 27 26 28 34 37 37 37 36 28 22 25 28 30 29 31 33 36 40 43 45 45 46 47 46 47
11 10 6 4 4 6 11 4 5 4 5 7 6 8 9 8 11 6 4 8 8 14 23 27 28 27 27 24 22 24 31 33 32 30 33 38 37 33 27 24 24 24 25 25 26 28 33 38 41 43 45 46 47 50
4 5 3 5 5 3 4 6 2 6 8 6 5 5 6 7 10 4 7 8 14 25 25 25 24 24 24 24 24 25 27 29 32 31 26 28 33 40 42 36 30 27 26 27 28 29 32 35 38 40 42 45 48 50
Wind_Direction_500mb
356 358 359 357 1 6 9 11 6 14 62 109 157 165 176 177 186 176 179 197 289 279 244 258 243 227 201 226 153 153 145 201 130 233 114 172 118 189 97 186 171 170 174 170 113 141 261 10 160 181 107 111 129 130
2 1 2 2 3 8 16 20 31 43 57 108 162 157 166 174 182 181 184 193 250 279 218 189 115 118 219 354 125 150 30 118 179 84 66 112 70 77 128 182 335 167 158 172 182 202 44 71 77 111 139 138 143 137
3 5 3 6 7 12 23 28 34 41 62 76 126 151 161 166 167 178 187 192 283 176 110 134 24 19 336 339 212 152 182 148 169 151 157 138 132 131 152 231 94 25 51 114 131 152 125 100 104 119 139 135 140 140
3 6 8 7 11 15 21 40 36 45 78 96 127 143 158 169 171 179 198 218 283 327 95 31 12 22 319 298 252 294 282 161 143 133 100 123 122 175 198 155 222 106 137 128 81 119 113 113 126 132 128 133 137 139
1 5 8 12 11 17 20 45 73 73 97 113 135 151 157 169 187 204 230 243 249 327 184 289 16 7 342 332 248 251 182 164 150 83 71 105 120 115 35 41 260 194 154 186 189 164 117 149 155 150 138 138 142 144
357 3 6 10 15 13 24 30 78 87 116 128 135 141 153 166 184 204 232 238 225 253 332 23 356 8 39 69 139 188 204 313 43 65 110 103 97 5 139 206 160 174 155 151 161 160 144 146 149 157 150 147 146 148
354 356 3 8 11 16 13 30 44 89 141 122 160 169 175 178 204 250 295 331 205 139 1 351 341 19 44 140 80 86 100 75 46 69 43 74 106 91 108 203 143 152 132 122 142 133 116 154 160 159 155 153 157 153
349 351 354 1 8 9 15 8 47 65 58 62 257 235 242 239 252 265 278 289 215 186 145 105 272 352 5 18 60 50 79 88 52 97 41 28 32 35 255 131 142 158 153 151 166 184 195 160 154 154 158 160 161 162
352 348 348 351 359 7 8 12 302 30 64 36 15 24 54 219 208 210 242 239 224 207 147 73 138 242 352 24 55 62 64 57 23 71 39 79 154 220 220 172 166 172 171 171 160 142 153 154 156 157 161 162 166 168
353 351 346 344 348 357 4 6 5 260 265 295 320 316 278 186 150 123 213 262 232 35 68 94 334 288 356 1 28 105 31 125 186 6 78 70 257 275 200 180 183 178 190 173 150 146 161 167 167 163 163 158 167 173
347 350 345 341 338 344 354 356 358 349 278 260 239 235 198 172 254 274 167 50 355 29 26 30 0 336 8 334 258 298 174 132 174 239 233 224 268 206 175 176 184 182 181 181 176 166 174 177 170 165 165 161 163 173
341 346 346 344 337 336 343 349 349 350 328 275 255 176 171 197 188 71 315 336 59 216 341 154 210 259 285 288 245 30 143 76 192 101 77 271 248 172 171 171 175 184 179 176 172 167 168 173 172 172 166 158 154 168
338 341 344 344 341 334 335 341 345 340 335 258 249 232 17 349 29 124 276 301 323 283 336 352 137 274 326 324 43 62 104 231 127 59 230 235 168 174 175 174 174 179 182 185 173 165 164 170 175 170 167 160 165 221
334 333 335 342 343 334 330 334 336 333 311 242 193 282 121 306 246 180 183 188 177 248 319 15 319 358 357 38 342 111 27 177 329 293 238 206 191 180 179 180 182 180 181 179 173 170 170 175 179 183 190 194 207 281
327 328 325 335 343 339 329 327 329 324 264 239 151 240 204 164 122 164 187 197 186 174 149 46 12 358 348 87 23 101 47 258 219 238 244 167 172 176 178 182 185 182 178 175 173 175 181 185 193 202 217 233 263 277
321 326 323 329 332 335 331 322 320 297 242 200 104 96 145 58 294 212 211 224 173 161 146 98 102 52 288 137 106 215 145 228 250 225 257 171 173 177 178 181 182 180 178 178 181 186 192 199 212 230 246 255 259 274
325 310 319 323 325 330 328 319 280 238 160 115 15 149 163 168 150 162 169 176 177 174 181 115 117 215 79 41 276 203 212 233 260 261 192 179 180 180 180 179 180 181 183 186 191 196 202 211 221 233 244 261 269 279
321 320 315 320 323 327 319 281 262 207 74 123 146 169 174 171 151 164 188 179 169 195 168 200 131 124 190 186 263 237 236 254 248 209 181 179 182 183 184 185 186 188 190 194 198 203 212 221 233 241 245 254 267 285
324 320 315 316 320 325 282 300 298 139 147 157 160 160 152 169 202 183 183 186 192 188 183 151 107 202 225 213 218 233 222 205 194 175 175 179 183 189 189 190 193 194 197 203 208 215 224 233 236 241 254 264 271 275
323 318 311 306 314 294 267 275 280 223 159 163 162 174 173 196 170 187 188 189 188 213 162 203 220 221 206 232 238 247 257 205 187 174 182 184 187 190 195 197 199 200 204 208 212 219 229 238 241 247 254 259 262 263
321 328 312 307 301 234 259 233 259 98 144 177 168 169 175 173 198 195 205 199 213 220 240 231 235 247 254 247 246 244 239 216 204 203 199 192 194 194 197 201 205 210 216 220 227 232 240 246 244 247 252 256 262 264
309 312 296 287 244 245 246 208 125 152 165 151 162 205 206 196 201 199 196 200 234 232 225 249 262 263 259 248 249 245 237 215 208 211 214 212 200 201 205 208 210 215 221 226 232 237 245 245 243 252 256 258 262 270
309 302 241 233 233 235 253 174 184 166 111 232 180 351 272 241 225 205 256 232 250 247 244 249 254 254 252 242 237 233 223 213 211 213 212 212 218 222 223 222 224 226 229 230 234 240 245 246 249 254 258 259 264 267
288 242 237 229 211 209 162 153 159 118 119 47 110 283 272 229 205 28 254 259 246 255 255 262 254 248 245 240 233 230 225 221 216 216 218 221 220 219 220 225 229 232 233 231 235 242 245 247 253 257 258 261 264 269
251 242 222 255 179 108 145 47 9 87 233 219 160 289 286 274 331 257 238 268 285 314 305 282 265 255 246 248 247 237 229 225 226 227 224 224 225 222 220 221 224 225 227 232 237 244 249 250 252 256 258 261 265 272
230 218 170 209 196 160 187 167 204 203 160 183 226 268 119 88 350 247 235 290 328 341 351 352 334 286 264 258 254 251 245 235 231 230 231 233 233 233 233 229 230 232 237 242 245 247 250 250 251 254 258 262 268 273
239 258 199 192 153 151 101 108 127 136 173 203 179 154 135 220 242 251 284 329 333 338 351 355 348 336 320 296 265 256 251 248 237 240 241 239 241 239 239 242 245 247 245 248 250 253 255 255 256 258 261 263 266 272
225 186 185 175 179 198 158 175 190 216 214 164 135 183 195 203 246 261 258 334 343 337 336 339 342 333 327 318 286 255 246 237 241 236 238 240 241 238 236 237 240 242 245 250 255 255 255 256 258 258 259 263 266 269
186 180 174 160 180 212 222 204 225 213 178 177 179 235 237 224 247 275 276 295 303 300 300 298 297 297 300 301 297 269 245 234 230 231 237 243 244 246 245 241 242 246 250 256 259 259 259 259 258 259 260 262 265 270
190 177 164 161 181 228 219 206 233 231 220 225 254 273 273 274 283 286 289 291 295 305 313 313 303 287 277 271 273 269 255 244 240 241 247 253 264 268 259 251 246 247 250 256 260 260 258 257 259 263 266 268 270 273
163 178 174 191 243 240 254 276 275 271 263 256 249 254 264 289 291 291 285 298 316 324 339 351 357 347 318 281 268 266 263 258 252 249 251 254 258 261 252 233 232 238 248 258 262 261 259 259 262 265 268 272 276 281
170 181 155 214 256 295 304 272 286 281 268 268 270 257 279 276 273 288 347 0 351 341 341 337 335 330 322 311 299 279 263 254 247 242 239 238 237 235 227 224 225 238 254 265 271 269 265 264 265 268 272 277 282 287
128 176 229 301 311 265 312 330 307 301 251 264 256 268 265 272 261 309 350 351 345 337 338 338 339 338 332 320 305 290 273 257 245 234 233 233 230 222 219 223 235 251 265 273 279 282 279 275 274 275 278 282 287 291
Wind_Speed_850mb
74 72 74 83 86 91 82 80 69 39 17 16 34 30 75 78 78 60 30 38 9 4 8 6 4 5 13 11 7 12 12 2 4 7 6 3 4 6 6 6 15 22 15 8 5 6 15 3 3 20 14 25 34 34
72 71 69 78 87 87 74 79 67 49 33 18 29 48 76 71 67 54 32 18 10 9 1 3 6 4 1 1 5 9 7 5 10 3 2 5 6 3 7 4 6 8 9 10 9 5 8 13 17 17 20 41 30 36
66 71 67 73 80 81 68 69 60 51 36 36 48 61 67 59 51 37 32 24 10 7 8 3 4 5 6 7 2 6 7 11 12 11 7 5 7 5 7 5 6 4 6 7 8 7 8 14 26 30 36 40 35 29
60 65 65 65 73 70 70 63 48 50 48 41 46 54 53 51 41 25 27 23 12 8 5 4 14 4 12 7 7 8 4 9 15 9 6 4 4 5 3 3 4 1 11 13 8 11 17 8 21 30 35 35 35 30
54 58 63 61 63 63 61 49 50 33 34 44 43 46 41 36 32 23 22 28 24 9 4 1 5 19 19 6 7 8 9 9 8 6 5 4 4 8 1 4 3 10 11 10 8 36 12 19 32 29 32 31 29 31
52 52 55 59 55 58 46 46 28 33 36 41 45 35 29 23 21 18 8 10 16 14 4 4 4 10 8 9 9 13 14 2 8 9 5 9 6 2 5 6 1 5 9 14 12 51 32 56 40 32 36 32 29 28
48 50 49 52 53 50 45 30 28 13 6 11 23 24 23 21 18 13 6 14 6 8 2 6 8 9 4 3 4 9 11 6 9 7 9 3 4 8 2 6 10 20 17 27 46 51 38 56 36 43 34 33 31 28
44 45 46 45 46 47 48 27 13 22 18 11 5 16 16 22 20 15 23 26 14 4 3 5 6 7 11 9 5 4 7 7 12 7 7 5 5 6 6 7 29 30 35 43 43 12 29 51 58 53 43 36 32 26
46 41 42 41 41 41 42 41 4 1 6 14 21 9 1 6 3 3 4 8 17 9 7 5 7 7 8 6 5 7 6 5 6 4 3 2 2 8 3 24 46 50 39 47 38 37 47 52 53 50 48 44 35 29
45 43 39 38 38 37 36 35 24 15 17 17 25 7 6 4 19 1 4 2 3 7 7 4 2 3 6 6 3 5 2 4 1 2 4 1 7 7 8 31 49 57 29 59 60 44 49 48 51 51 44 39 30 24
42 44 40 36 35 35 34 32 29 19 13 12 7 6 6 16 6 4 2 8 10 6 9 5 4 4 7 1 2 2 3 2 4 4 4 3 7 8 36 43 47 46 40 55 34 40 44 45 47 46 41 36 28 18
38 43 43 39 37 33 32 33 28 26 11 10 7 6 10 4 1 7 3 6 7 5 4 2 3 3 4 4 4 3 3 2 4 2 2 6 6 19 53 52 49 46 43 38 25 38 42 39 36 34 31 26 20 10
36 37 39 40 41 33 32 33 32 26 20 7 6 5 2 7 8 8 6 7 4 2 6 8 2 2 3 2 3 2 3 1 2 4 8 8 7 43 56 53 50 44 42 40 38 40 39 36 32 27 21 18 11 6
36 36 34 37 39 34 32 34 32 24 9 4 5 5 5 7 6 8 7 7 2 3 2 3 7 5 6 3 3 4 2 0 1 4 11 5 37 62 55 53 55 56 51 47 44 40 35 31 25 20 16 11 5 6
35 36 30 36 42 39 33 32 30 19 7 5 2 6 6 1 2 5 7 5 8 6 2 1 3 3 4 4 4 6 4 6 9 9 6 7 51 72 71 67 60 56 52 46 40 36 32 27 23 19 13 8 6 11
34 34 23 40 40 41 36 30 24 10 5 2 6 9 6 4 4 7 12 7 15 13 7 3 3 6 4 5 5 11 9 10 7 6 6 26 54 64 64 60 52 46 42 39 37 33 29 24 19 16 13 14 14 15
31 17 37 39 38 42 39 22 8 6 2 3 2 8 6 3 6 13 18 17 19 12 4 5 5 15 2 4 5 7 9 6 7 10 19 44 53 58 56 53 51 49 46 43 39 34 32 29 24 22 20 18 15 17
37 35 36 36 37 39 24 6 6 1 6 5 3 7 5 2 6 10 13 23 18 11 12 8 13 5 9 8 8 7 23 17 11 13 32 45 47 49 50 53 53 49 45 40 36 35 32 28 25 21 21 20 16 19
42 42 39 37 30 24 8 5 4 4 4 5 8 14 7 5 7 10 14 21 16 8 5 7 5 7 8 9 11 14 20 21 19 34 43 47 48 49 49 48 46 46 45 42 38 31 26 26 24 24 21 20 17 21
44 43 36 22 22 10 8 4 4 2 6 10 12 13 7 4 11 12 12 16 14 7 2 6 11 11 16 13 14 17 15 30 36 45 47 52 53 53 51 51 50 45 43 42 40 38 34 28 23 21 23 24 23 19
48 39 33 27 15 15 8 5 2 2 8 6 12 13 5 10 8 13 12 18 14 13 7 29 34 26 23 22 20 22 24 35 47 43 48 55 57 56 54 51 46 45 45 43 39 34 32 26 18 29 28 25 26 25
50 39 24 19 11 8 4 4 4 7 4 6 13 8 6 4 8 9 11 18 18 22 29 33 41 35 35 34 29 26 26 33 42 42 25 40 55 59 60 58 57 55 51 45 39 35 30 24 30 33 28 26 32 28
29 12 9 11 9 6 2 10 3 3 3 5 4 2 4 3 4 8 10 17 21 29 42 50 48 42 34 36 34 32 33 38 43 45 37 29 36 46 49 49 49 49 46 42 38 35 33 31 35 33 31 33 34 33
15 9 8 6 9 5 9 2 2 5 4 2 3 5 5 3 2 1 7 13 22 31 34 37 46 45 42 44 46 40 39 42 43 45 46 40 38 40 43 44 44 43 40 35 39 39 37 37 37 37 36 37 37 36
7 9 7 6 6 6 3 1 3 4 5 3 2 6 4 0 1 4 7 9 12 19 20 26 35 41 49 45 44 44 45 48 50 51 49 47 40 38 42 46 48 45 43 46 46 41 38 37 40 42 41 41 39 38
6 9 7 7 4 8 9 7 9 11 6 5 9 1 1 4 2 13 7 6 10 16 21 20 18 21 35 43 46 41 44 49 51 52 49 48 47 45 43 45 46 46 44 40 38 39 39 40 42 44 43 41 39 41
8 8 8 7 6 9 4 3 4 3 8 11 7 7 4 5 12 8 6 8 10 19 17 17 21 22 22 22 27 34 38 35 50 50 47 47 45 43 44 42 41 36 35 35 37 38 39 40 43 43 42 40 41 42
12 14 9 13 9 9 6 5 8 12 8 11 17 9 12 14 8 3 3 7 13 21 26 25 22 26 27 24 21 26 31 36 32 42 48 47 48 49 50 48 44 42 41 39 37 37 38 39 40 41 43 42 40 41
8 10 13 4 3 7 13 12 8 7 10 18 8 7 9 13 12 13 16 20 29 34 41 43 40 35 30 31 30 26 30 33 40 43 48 52 50 50 48 48 46 43 40 38 39 39 39 40 40 41 42 45 44 45
11 18 8 5 8 9 6 13 6 7 14 19 13 15 19 31 36 37 40 44 47 43 35 30 31 35 34 34 30 28 30 34 38 42 44 44 43 38 35 36 36 35 35 36 38 41 43 45 44 45 44 44 44 45
11 17 6 7 6 4 7 12 19 23 21 18 28 29 30 26 38 38 26 18 16 14 12 15 20 19 17 20 26 27 26 28 34 37 37 37 36 28 22 25 28 30 29 31 33 36 40 43 45 45 46 47 46 47
11 10 6 4 4 6 11 4 5 4 5 7 6 8 9 8 11 6 4 8 8 14 23 27 28 27 27 24 22 24 31 33 32 30 33 38 37 33 27 24 24 24 25 25 26 28 33 38 41 43 45 46 47 50
4 5 3 5 5 3 4 6 2 6 8 6 5 5 6 7 10 4 7 8 14 25 25 25 24 24 24 24 24 25 27 29 32 31 26 28 33 40 42 36 30 27 26 27 28 29 32 35 38 40 42 45 48 50
Wind_Direction_850mb
356 358 359 357 1 6 9 11 6 14 62 109 157 165 176 177 186 176 179 197 289 279 244 258 243 227 201 226 153 153 145 201 130 233 114 172 118 189 97 186 171 170 174 170 113 141 261 10 160 181 107 111 129 130
2 1 2 2 3 8 16 20 31 43 57 108 162 157 166 174 182 181 184 193 250 279 218 189 115 118 219 354 125 150 30 118 179 84 66 112 70 77 128 182 335 167 158 172 182 202 44 71 77 111 139 138 143 137
3 5 3 6 7 12 23 28 34 41 62 76 126 151 161 166 167 178 187 192 283 176 110 134 24 19 336 339 212 152 182 148 169 151 157 138 132 131 152 231 94 25 51 114 131 152 125 100 104 119 139 135 140 140
3 6 8 7 11 15 21 40 36 45 78 96 127 143 158 169 171 179 198 218 283 327 95 31 12 22 319 298 252 294 282 161 143 133 100 123 122 175 198 155 222 106 137 128 81 119 113 113 126 132 128 133 137 139
1 5 8 12 11 17 20 45 73 73 97 113 135 151 157 169 187 204 230 243 249 327 184 289 16 7 342 332 248 251 182 164 150 83 71 105 120 115 35 41 260 194 154 186 189 164 117 149 155 150 138 138 142 144
357 3 6 10 15 13 24 30 78 87 116 128 135 141 153 166 184 204 232 238 225 253 332 23 356 8 39 69 139 188 204 313 43 65 110 103 97 5 139 206 160 174 155 151 161 160 144 146 149 157 150 147 146 148
354 356 3 8 11 16 13 30 44 89 141 122 160 169 175 178 204 250 295 331 205 139 1 351 341 19 44 140 80 86 100 75 46 69 43 74 106 91 108 203 143 152 132 122 142 133 116 154 160 159 155 153 157 153
349 351 354 1 8 9 15 8 47 65 58 62 257 235 242 239 252 265 278 289 215 186 145 105 272 352 5 18 60 50 79 88 52 97 41 28 32 35 255 131 142 158 153 151 166 184 195 160 154 154 158 160 161 162
352 348 348 351 359 7 8 12 302 30 64 36 15 24 54 219 208 210 242 239 224 207 147 73 138 242 352 24 55 62 64 57 23 71 39 79 154 220 220 172 166 172 171 171 160 142 153 154 156 157 161 162 166 168
353 351 346 344 348 357 4 6 5 260 265 295 320 316 278 186 150 123 213 262 232 35 68 94 334 288 356 1 28 105 31 125 186 6 78 70 257 275 200 180 183 178 190 173 150 146 161 167 167 163 163 158 167 173
347 350 345 341 338 344 354 356 358 349 278 260 239 235 198 172 254 274 167 50 355 29 26 30 0 336 8 334 258 298 174 132 174 239 233 224 268 206 175 176 184 182 181 181 176 166 174 177 170 165 165 161 163 173
341 346 346 344 337 336 343 349 349 350 328 275 255 176 171 197 188 71 315 336 59 216 341 154 210 259 285 288 245 30 143 76 192 101 77 271 248 172 171 171 175 184 179 176 172 167 168 173 172 172 166 158 154 168
338 341 344 344 341 334 335 341 345 340 335 258 249 232 17 349 29 124 276 301 323 283 336 352 137 274 326 324 43 62 104 231 127 59 230 235 168 174 175 174 174 179 182 185 173 165 164 170 175 170 167 160 165 221
334 333 335 342 343 334 330 334 336 333 311 242 193 282 121 306 246 180 183 188 177 248 319 15 319 358 357 38 342 111 27 177 329 293 238 206 191 180 179 180 182 180 181 179 173 170 170 175 179 183 190 194 207 281
327 328 325 335 343 339 329 327 329 324 264 239 151 240 204 164 122 164 187 197 186 174 149 46 12 358 348 87 23 101 47 258 219 238 244 167 172 176 178 182 185 182 178 175 173 175 181 185 193 202 217 233 263 277
321 326 323 329 332 335 331 322 320 297 242 200 104 96 145 58 294 212 211 224 173 161 146 98 102 52 288 137 106 215 145 228 250 225 257 171 173 177 178 181 182 180 178 178 181 186 192 199 212 230 246 255 259 274
325 310 319 323 325 330 328 319 280 238 160 115 15 149 163 168 150 162 169 176 177 174 181 115 117 215 79 41 276 203 212 233 260 261 192 179 180 180 180 179 180 181 183 186 191 196 202 211 221 233 244 261 269 279
321 320 315 320 323 327 319 281 262 207 74 123 146 169 174 171 151 164 188 179 169 195 168 200 131 124 190 186 263 237 236 254 248 209 181 179 182 183 184 185 186 188 190 194 198 203 212 221 233 241 245 254 267 285
324 320 315 316 320 325 282 300 298 139 147 157 160 160 152 169 202 183 183 186 192 188 183 151 107 202 225 213 218 233 222 205 194 175 175 179 183 189 189 190 193 194 197 203 208 215 224 233 236 241 254 264 271 275
323 318 311 306 314 294 267 275 280 223 159 163 162 174 173 196 170 187 188 189 188 213 162 203 220 221 206 232 238 247 257 205 187 174 182 184 187 190 195 197 199 200 204 208 212 219 229 238 241 247 254 259 262 263
321 328 312 307 301 234 259 233 259 98 144 177 168 169 175 173 198 195 205 199 213 220 240 231 235 247 254 247 246 244 239 216 204 203 199 192 194 194 197 201 205 210 216 220 227 232 240 246 244 247 252 256 262 264
309 312 296 287 244 245 246 208 125 152 165 151 162 205 206 196 201 199 196 200 234 232 225 249 262 263 259 248 249 245 237 215 208 211 214 212 200 201 205 208 210 215 221 226 232 237 245 245 243 252 256 258 262 270
309 302 241 233 233 235 253 174 184 166 111 232 180 351 272 241 225 205 256 232 250 247 244 249 254 254 252 242 237 233 223 213 211 213 212 212 218 222 223 222 224 226 229 230 234 240 245 246 249 254 258 259 264 267
288 242 237 229 211 209 162 153 159 118 119 47 110 283 272 229 205 28 254 259 246 255 255 262 254 248 245 240 233 230 225 221 216 216 218 221 220 219 220 225 229 232 233 231 235 242 245 247 253 257 258 261 264 269
251 242 222 255 179 108 145 47 9 87 233 219 160 289 286 274 331 257 238 268 285 314 305 282 265 255 246 248 247 237 229 225 226 227 224 224 225 222 220 221 224 225 227 232 237 244 249 250 252 256 258 261 265 272
230 218 170 209 196 160 187 167 204 203 160 183 226 268 119 88 350 247 235 290 328 341 351 352 334 286 264 258 254 251 245 235 231 230 231 233 233 233 233 229 230 232 237 242 245 247 250 250 251 254 258 262 268 273
239 258 199 192 153 151 101 108 127 136 173 203 179 154 135 220 242 251 284 329 333 338 351 355 348 336 320 296 265 256 251 248 237 240 241 239 241 239 239 242 245 247 245 248 250 253 255 255 256 258 261 263 266 272
225 186 185 175 179 198 158 175 190 216 214 164 135 183 195 203 246 261 258 334 343 337 336 339 342 333 327 318 286 255 246 237 241 236 238 240 241 238 236 237 240 242 245 250 255 255 255 256 258 258 259 263 266 269
186 180 174 160 180 212 222 204 225 213 178 177 179 235 237 224 247 275 276 295 303 300 300 298 297 297 300 301 297 269 245 234 230 231 237 243 244 246 245 241 242 246 250 256 259 259 259 259 258 259 260 262 265 270
190 177 164 161 181 228 219 206 233 231 220 225 254 273 273 274 283 286 289 291 295 305 313 313 303 287 277 271 273 269 255 244 240 241 247 253 264 268 259 251 246 247 250 256 260 260 258 257 259 263 266 268 270 273
163 178 174 191 243 240 254 276 275 271 263 256 249 254 264 289 291 291 285 298 316 324 339 351 357 347 318 281 268 266 263 258 252 249 251 254 258 261 252 233 232 238 248 258 262 261 259 259 262 265 268 272 276 281
170 181 155 214 256 295 304 272 286 281 268 268 270 257 279 276 273 288 347 0 351 341 341 337 335 330 322 311 299 279 263 254 247 242 239 238 237 235 227 224 225 238 254 265 271 269 265 264 265 268 272 277 282 287
128 176 229 301 311 265 312 330 307 301 251 264 256 268 265 272 261 309 350 351 345 337 338 338 339 338 332 320 305 290 273 257 245 234 233 233 230 222 219 223 235 251 265 273 279 282 279 275 274 275 278 282 287 291